Regional Weather Roundup
Issued by NWS

Home | Current Version | Previous Version | Text Only | Print | Product List | Glossary On
Versions: 1 2 3 4 5 6 7 8 9 10 11 12 13 14 15 16 17 18 19 20 21 22 23 24 25 26 27 28 29 30 31 32 33 34 35 36 37 38 39 40 41 42 43 44 45 46 47 48 49 50
000
ASUS42 KFFC 210603
RWRGA
WEATHER ROUNDUP FOR GEORGIA
NATIONAL WEATHER SERVICE PEACHTREE CITY GA
100 AM EST SUN DEC 21 2014

NOTE: "FAIR" INDICATES FEW OR NO CLOUDS BELOW 12,000 FEET WITH NO
SIGNIFICANT WEATHER AND/OR OBSTRUCTIONS TO VISIBILITY.

* = USE WITH CAUTION. THE STATIONS MARKED WITH AN ASTERISK MAY NOT
REPORT WEATHER SUCH AS PRECIPITATION, FOG, OR THUNDER AND ARE NOT
QUALITY CONTROLLED BY NWS.

THE REMARK "TC" DENOTES TEMPERATURE READING IN DEGREES CELSIUS.

GAZ001>058-210700-
NORTH GEORGIA

CITY           SKY/WX    TMP DP  RH WIND       PRES   REMARKS
ATLANTA        CLOUDY    48  44  86 E7        30.19F
6HR MIN TEMP:  48; 6HR MAX TEMP:  51;

ATHENS         CLOUDY    45  43  93 NE5       30.21F FOG
6HR MIN TEMP:  45; 6HR MAX TEMP:  45;

CHAMBLEE       CLOUDY    46  43  89 CALM      30.20S FOG
6HR MIN TEMP:  46; 6HR MAX TEMP:  49;

PEACHTREE CITY CLOUDY    48  45  89 CALM      30.20S FOG
6HR MIN TEMP:  48; 6HR MAX TEMP:  51;

ROME           CLOUDY    40  39  97 CALM      30.21S
6HR MIN TEMP:  36; 6HR MAX TEMP:  44;

WEST ATLANTA   CLOUDY    48  43  82 E6        30.20S
6HR MIN TEMP:  48; 6HR MAX TEMP:  50;

GAINESVILLE    CLOUDY    43  41  93 E5        30.22S FOG
6HR MIN TEMP:  43; 6HR MAX TEMP:  45;

CARTERSVILLE   CLOUDY    45  41  86 CALM      30.22S
6HR MIN TEMP:  44; 6HR MAX TEMP:  46;



CITY           SKY/WX    TMP DP  RH WIND       PRES   REMARKS
DALTON*        CLOUDY    37  37 100 CALM      30.22S
MARIETTA       CLOUDY    47  45  92 E3        30.20S
$$

GAZ059>098-102>109-210700-
CENTRAL GEORGIA

CITY           SKY/WX    TMP DP  RH WIND       PRES   REMARKS
AUGUSTA-BUSH   CLOUDY    47  45  93 NE5       30.22F FOG
6HR MIN TEMP:  47; 6HR MAX TEMP:  50;

AUGUSTA-DANIEL CLOUDY    48  46  93 NE6       30.21F
6HR MIN TEMP:  48; 6HR MAX TEMP:  50;

COLUMBUS       CLOUDY    51  48  89 E5        30.18R
6HR MIN TEMP:  51; 6HR MAX TEMP:  52;

MACON          CLOUDY    50  50 100 NE6       30.19R FOG
6HR MIN TEMP:  50; 6HR MAX TEMP:  51;

ROBINS AFB     CLOUDY    51  50  97 N2        30.16S FOG


CITY           SKY/WX    TMP DP  RH WIND       PRES   REMARKS
LAGRANGE*      CLOUDY    53  50  92 CALM      30.17F
SYLVANIA*      CLOUDY    49  49 100 NE6       30.20S FOG
MILLEDGEVILLE* LGT RAIN  50  50 100 CALM      30.20S
$$

GAZ099>101-110>166-210700-
SOUTH GEORGIA

CITY           SKY/WX    TMP DP  RH WIND       PRES   REMARKS
SAVANNAH       CLOUDY    51  48  89 NE8       30.18F
6HR MIN TEMP:  51; 6HR MAX TEMP:  54; 6HR PCP: TRACE;

VALDOSTA       CLOUDY    55  52  89 NE7       30.13S
6HR MIN TEMP:  55; 6HR MAX TEMP:  57;

ALMA           CLOUDY    53  50  89 E6        30.16F
6HR MIN TEMP:  52; 6HR MAX TEMP:  54;

ST SIMONS      CLOUDY    55  52  89 NE14      30.15F
6HR MIN TEMP:  55; 6HR MAX TEMP:  57;

ALBANY         CLOUDY    53  51  93 CALM      30.18R
HUNTER AFB     CLOUDY    52  51  97 N8        30.15S
MOODY AFB      LGT RAIN  54  52  93 NE8       30.13S
BRUNSWICK      CLOUDY    55  52  88 NE5       30.16F


CITY           SKY/WX    TMP DP  RH WIND       PRES   REMARKS
BAINBRIDGE*    CLOUDY    55  54  94 NE8       30.14F
MOULTRIE*      LGT RAIN  54  54 100 CALM      30.15S
VIDALIA*       CLOUDY    52  52 100 NE7       30.18S
WAYCROSS*      DRIZZLE   57  55  95 E8        30.15F
DOUGLAS*       CLOUDY    55  52  88 E7        30.18R
$$


USA.gov is the U.S. government's official web portal to all federal, state and local government web resources and services.